Regional Weather Roundup
Issued by NWS

Home | Current Version | Previous Version | Graphics & Text | Print | Product List | Glossary On
Versions: 1 2 3 4 5 6 7 8 9 10 11 12 13 14 15 16 17 18 19 20 21 22 23 24 25 26 27 28 29 30 31 32 33 34 35 36 37 38 39 40 41 42 43 44 45 46 47 48 49 50
344
ASUS44 KLIX 302201
RWRLA
LOUISIANA WEATHER ROUNDUP
NATIONAL WEATHER SERVICE NEW ORLEANS LA
500 PM CDT TUE SEP 30 2014

NOTE: "FAIR" INDICATES FEW OR NO CLOUDS BELOW 12,000 FEET WITH NO
      SIGNIFICANT WEATHER AND/OR OBSTRUCTIONS TO VISIBILITY.
      SKY/WX - SKY CONDITION AND SIGNIFICANT WEATHER.
      TMP - AIR TEMPERATURE.    DP   - DEWPOINT TEMPERATURE.
      RH  - RELATIVE HUMIDITY.  PRES - PRESSURE.
      HX  - HEAT INDEX.         WCI  - WIND CHILL INDEX.

*  THESE STATIONS ARE NOT NWS OR FAA STATIONS AND ARE NOT UNDER
   NWS QUALITY CONTROL.

LAZ040-048-061>063-065-066-069-302300-
SOUTHEAST LOUISIANA

CITY           SKY/WX    TMP DP  RH WIND       PRES   REMARKS
N.O. AUDUBON     N/A     87  74  64 MISG        N/A
N.O. INTL ARPT MOSUNNY   87  68  52 E5        29.83S
N.O. LAKEFRONT SUNNY     84  69  60 SE9       29.84F
N.O. DOWNTOWN* FAIR      84  68  58 SE6       29.84S
SLIDELL        SUNNY     84  70  62 SE9       29.83F
BATON ROUGE    MOSUNNY   88  69  53 E7        29.82F
BOOTHVILLE     MOSUNNY   82  74  76 E10       29.86S
BELLE CHASSE   MOSUNNY   83  71  67 SE9       29.84S
BOGALUSA*      FAIR      87  68  52 E6        29.85S
GALLIANO*      NOT AVBL
NEW ROADS*     MOCLDY    88  70  55 CALM      29.82S
GONZALES*      FAIR      87  72  59 NE5       29.82S
HAMMOND*       NOT AVBL
HOUMA*         PTSUNNY  N/A N/A N/A SE5       29.83S
PORT FOURCHON* NOT AVBL

$$

LAZ041-044-053-054-302300-
SOUTHWEST LOUISIANA

CITY           SKY/WX    TMP DP  RH WIND       PRES   REMARKS
LAKE CHARLES   SUNNY     86  72  62 S8        29.80F
LAFAYETTE      SUNNY     87  71  58 VRB5      29.81F
PATTERSON      PTSUNNY   88  72  58 SE3         N/A
SALT POINT       N/A     86  76  71 VRB5      29.82F HX  96
NEW IBERIA     MOSUNNY   89  73  59 S6        29.82F HX  97
CHENAULT AIRPK NOT AVBL

$$

LAZ027-028-302300-
CENTRAL LOUISIANA

CITY           SKY/WX    TMP DP  RH WIND       PRES   REMARKS
FORT POLK      PTSUNNY   86  71  60 SE6       29.81F
ALEXANDRIA INT MOSUNNY   90  67  46 SE6       29.79F
ALEXANDRIA     SUNNY     90  68  48 E6        29.82F

$$

LAZ001-002-302300-
NORTHWEST LOUISIANA

CITY           SKY/WX    TMP DP  RH WIND       PRES   REMARKS
SHREVEPORT     PTSUNNY   88  65  46 SE10      29.79F
BARKSDALE AFB  SUNNY     91  64  40 S12       29.80F
DTN SHREVEPORT SUNNY     88  62  41 S10       29.79F

$$

LAZ014-016-302300-
NORTHEAST LOUISIANA

CITY           SKY/WX    TMP DP  RH WIND       PRES   REMARKS
MONROE         SUNNY     90  63  40 CALM      29.83S
TALLULAH       MOSUNNY   89  62  40 E6        29.83F

$$




USA.gov is the U.S. government's official web portal to all federal, state and local government web resources and services.